• In Denmark
  • List of Countries
  • For 7 days
  • Water Temperature
  • Satellite Maps
  • Weather Map
  • Weather Widgets
  • user-avatar
    Login

    Hourly Weather Juraszowa

    Today, 20 July, Friday

    Time Temperature Precipitation Wind Pressure Humidity
    00:00 +17°C° 0 mm 2 mps 724 mmHg 97%
    01:00 +17°C° 0 mm 2 mps 724 mmHg 97%
    02:00 +17°C° 0 mm 2 mps 724 mmHg 97%
    03:00 +17°C° 0 mm 2 mps 724 mmHg 97%
    04:00 +17°C° 0 mm 2 mps 724 mmHg 97%
    05:00 +18°C° 0 mm 2 mps 724 mmHg 95%
    06:00 +18°C° 0 mm 2 mps 724 mmHg 94%
    07:00 +19°C° 0 mm 2 mps 724 mmHg 91%
    08:00 +20°C° 0.1 mm 3 mps 724 mmHg 87%
    09:00 +20°C° 0.1 mm 3 mps 724 mmHg 83%
    10:00 +21°C° 0.1 mm 3 mps 724 mmHg 78%
    11:00 +22°C° 0.2 mm 3 mps 724 mmHg 75%
    12:00 +24°C° 0.2 mm 3 mps 724 mmHg 71%
    13:00 +25°C° 0.2 mm 3 mps 724 mmHg 68%
    14:00 +25°C° 0.2 mm 3 mps 724 mmHg 67%
    15:00 +25°C° 0.2 mm 3 mps 724 mmHg 66%
    16:00 +25°C° 0.2 mm 3 mps 724 mmHg 65%
    17:00 +24°C° 0.1 mm 3 mps 724 mmHg 71%
    18:00 +23°C° 0.1 mm 2 mps 724 mmHg 77%
    19:00 +21°C° 0.1 mm 1 mps 724 mmHg 83%
    20:00 +20°C° 0 mm 1 mps 724 mmHg 86%
    21:00 +19°C° 0 mm 1 mps 724 mmHg 89%
    22:00 +18°C° 0 mm 1 mps 724 mmHg 92%
    23:00 +18°C° 0 mm 1 mps 724 mmHg 92%

    Tomorrow, 21 July, Saturday

    Time Temperature Precipitation Wind Pressure Humidity
    00:00 +16°C° 0 mm 1 mps 724 mmHg 93%
    01:00 +16°C° 0 mm 1 mps 724 mmHg 93%
    02:00 +16°C° 0 mm 1 mps 724 mmHg 94%
    03:00 +15°C° 0 mm 1 mps 724 mmHg 94%
    04:00 +15°C° 0 mm 1 mps 724 mmHg 94%
    05:00 +18°C° 0 mm 1 mps 724 mmHg 88%
    06:00 +19°C° 0 mm 1 mps 724 mmHg 82%
    07:00 +21°C° 0 mm 1 mps 724 mmHg 76%
    08:00 +22°C° 0 mm 1 mps 725 mmHg 69%
    09:00 +24°C° 0 mm 1 mps 725 mmHg 62%
    10:00 +25°C° 0 mm 1 mps 725 mmHg 54%
    11:00 +26°C° 0.1 mm 1 mps 725 mmHg 53%
    12:00 +26°C° 0.1 mm 2 mps 724 mmHg 52%
    13:00 +27°C° 0.1 mm 2 mps 724 mmHg 51%
    14:00 +27°C° 0.2 mm 1 mps 724 mmHg 53%
    15:00 +26°C° 0.2 mm 1 mps 724 mmHg 55%
    16:00 +26°C° 0.2 mm 1 mps 724 mmHg 56%
    17:00 +25°C° 0.1 mm 1 mps 724 mmHg 63%
    18:00 +23°C° 0.1 mm 1 mps 724 mmHg 69%
    19:00 +22°C° 0.1 mm 1 mps 723 mmHg 75%
    20:00 +20°C° 0 mm 1 mps 723 mmHg 79%
    21:00 +19°C° 0 mm 1 mps 724 mmHg 82%
    22:00 +18°C° 0 mm 1 mps 724 mmHg 85%
    23:00 +18°C° 0 mm 1 mps 723 mmHg 86%

    Day after tomorrow, 22 July, Sunday

    Time Temperature Precipitation Wind Pressure Humidity
    00:00 +15°C° 0 mm 0 mps 723 mmHg 87%
    01:00 +15°C° 0 mm 0 mps 723 mmHg 88%
    02:00 +15°C° 0 mm 0 mps 723 mmHg 89%
    03:00 +15°C° 0 mm 0 mps 723 mmHg 89%
    04:00 +14°C° 0 mm 0 mps 723 mmHg 90%
    05:00 +16°C° 0 mm 0 mps 723 mmHg 84%
    06:00 +18°C° 0 mm 0 mps 723 mmHg 78%
    07:00 +20°C° 0 mm 0 mps 723 mmHg 73%
    08:00 +24°C° 0.1 mm 1 mps 723 mmHg 68%
    09:00 +25°C° 0.1 mm 2 mps 723 mmHg 64%
    10:00 +26°C° 0.1 mm 2 mps 723 mmHg 60%
    11:00 +26°C° 0.4 mm 2 mps 723 mmHg 63%
    12:00 +26°C° 0.4 mm 2 mps 723 mmHg 65%
    13:00 +26°C° 0.4 mm 2 mps 723 mmHg 68%
    14:00 +26°C° 0.9 mm 2 mps 722 mmHg 70%
    15:00 +25°C° 0.9 mm 2 mps 722 mmHg 72%
    16:00 +25°C° 0.9 mm 2 mps 722 mmHg 74%
    17:00 +24°C° 0.7 mm 1 mps 722 mmHg 78%
    18:00 +23°C° 0.7 mm 1 mps 722 mmHg 81%
    19:00 +22°C° 0.7 mm 1 mps 722 mmHg 85%
    20:00 +21°C° 0.1 mm 1 mps 722 mmHg 86%
    21:00 +20°C° 0.1 mm 1 mps 722 mmHg 87%
    22:00 +19°C° 0.1 mm 1 mps 722 mmHg 87%
    23:00 +19°C° 0 mm 1 mps 722 mmHg 88%

    23 July, Monday

    Time Temperature Precipitation Wind Pressure Humidity
    00:00 +18°C° 0 mm 1 mps 721 mmHg 88%
    01:00 +18°C° 0 mm 1 mps 721 mmHg 89%
    02:00 +16°C° 0 mm 1 mps 721 mmHg 89%
    03:00 +16°C° 0 mm 1 mps 721 mmHg 90%
    04:00 +16°C° 0 mm 1 mps 721 mmHg 90%
    05:00 +18°C° 0 mm 1 mps 721 mmHg 87%
    06:00 +20°C° 0 mm 1 mps 721 mmHg 84%
    07:00 +21°C° 0 mm 1 mps 722 mmHg 81%
    08:00 +21°C° 0 mm 2 mps 722 mmHg 74%
    09:00 +24°C° 0 mm 3 mps 722 mmHg 67%
    10:00 +25°C° 0 mm 3 mps 722 mmHg 59%
    11:00 +26°C° 0.1 mm 3 mps 722 mmHg 59%
    12:00 +26°C° 0.1 mm 3 mps 722 mmHg 58%
    13:00 +27°C° 0.1 mm 4 mps 721 mmHg 57%
    14:00 +26°C° 0.3 mm 3 mps 721 mmHg 62%
    15:00 +26°C° 0.3 mm 3 mps 721 mmHg 67%
    16:00 +26°C° 0.3 mm 3 mps 721 mmHg 72%
    17:00 +24°C° 0.5 mm 3 mps 722 mmHg 77%
    18:00 +23°C° 0.5 mm 2 mps 722 mmHg 83%
    19:00 +20°C° 0.5 mm 2 mps 722 mmHg 88%
    20:00 +20°C° 0.1 mm 2 mps 722 mmHg 90%
    21:00 +19°C° 0.1 mm 2 mps 722 mmHg 92%
    22:00 +18°C° 0.1 mm 2 mps 722 mmHg 94%
    23:00 +19°C° 0 mm 1 mps 722 mmHg 95%

    24 July, Tuesday

    Time Temperature Precipitation Wind Pressure Humidity
    00:00 +18°C° 0 mm 1 mps 722 mmHg 96%
    01:00 +18°C° 0 mm 1 mps 722 mmHg 96%
    02:00 +18°C° 0 mm 1 mps 722 mmHg 96%
    03:00 +16°C° 0 mm 1 mps 722 mmHg 96%
    04:00 +16°C° 0 mm 1 mps 723 mmHg 96%
    05:00 +18°C° 0 mm 1 mps 723 mmHg 94%
    06:00 +18°C° 0 mm 2 mps 723 mmHg 91%
    07:00 +19°C° 0 mm 2 mps 723 mmHg 89%
    08:00 +21°C° 0 mm 2 mps 723 mmHg 80%
    09:00 +23°C° 0 mm 2 mps 723 mmHg 71%
    10:00 +25°C° 0 mm 3 mps 723 mmHg 62%
    11:00 +25°C° 0 mm 3 mps 723 mmHg 58%
    12:00 +26°C° 0 mm 3 mps 723 mmHg 55%
    13:00 +27°C° 0 mm 3 mps 723 mmHg 52%
    14:00 +27°C° 0 mm 3 mps 723 mmHg 53%
    15:00 +27°C° 0 mm 2 mps 723 mmHg 53%
    16:00 +26°C° 0 mm 2 mps 722 mmHg 54%
    17:00 +25°C° 0 mm 2 mps 722 mmHg 62%
    18:00 +23°C° 0 mm 1 mps 722 mmHg 70%
    19:00 +21°C° 0 mm 1 mps 722 mmHg 77%
    20:00 +20°C° 0 mm 1 mps 722 mmHg 80%
    21:00 +19°C° 0 mm 1 mps 722 mmHg 84%
    22:00 +18°C° 0 mm 1 mps 722 mmHg 87%
    23:00 +18°C° 0.1 mm 1 mps 722 mmHg 88%

    25 July, Wednesday

    Time Temperature Precipitation Wind Pressure Humidity
    00:00 +18°C° 0.1 mm 1 mps 722 mmHg 89%
    01:00 +16°C° 0.1 mm 1 mps 722 mmHg 90%
    02:00 +16°C° 0 mm 1 mps 722 mmHg 91%
    03:00 +16°C° 0 mm 1 mps 722 mmHg 92%
    04:00 +15°C° 0 mm 1 mps 722 mmHg 92%
    05:00 +18°C° 0 mm 1 mps 722 mmHg 87%
    06:00 +20°C° 0 mm 1 mps 722 mmHg 82%
    07:00 +21°C° 0 mm 1 mps 723 mmHg 77%
    08:00 +23°C° 0.2 mm 1 mps 723 mmHg 72%
    09:00 +24°C° 0.2 mm 2 mps 723 mmHg 67%
    10:00 +26°C° 0.2 mm 2 mps 723 mmHg 62%
    11:00 +26°C° 0.8 mm 2 mps 722 mmHg 65%
    12:00 +26°C° 0.8 mm 2 mps 722 mmHg 67%
    13:00 +26°C° 0.8 mm 2 mps 722 mmHg 70%
    14:00 +25°C° 1 mm 2 mps 722 mmHg 72%
    15:00 +25°C° 1 mm 2 mps 722 mmHg 75%
    16:00 +24°C° 1 mm 1 mps 722 mmHg 77%
    17:00 +23°C° 0.2 mm 1 mps 722 mmHg 81%
    18:00 +22°C° 0.2 mm 1 mps 722 mmHg 85%
    19:00 +21°C° 0.2 mm 1 mps 722 mmHg 88%
    20:00 +20°C° 0.2 mm 1 mps 722 mmHg 90%
    21:00 +19°C° 0.2 mm 1 mps 722 mmHg 91%
    22:00 +18°C° 0.2 mm 1 mps 722 mmHg 93%
    23:00 +18°C° 0 mm 1 mps 722 mmHg 93%
    Show more